Home > Time Zones > World Clock > Weather > Italy > Monza > Past weeks

Flag for Italy Weather past 2 weeks in Monza, Italy

Now
79 °F

Clear.


Feels Like: 81 °F
Forecast: 75 / 92 °F
Wind: No wind

Location: Milan / Linate

Current Time: Jul 5, 2015 at 12:35:38 AM

Latest Report: Jul 4, 2015 at 11:50 PM


Visibility: 10 mi

Pressure: 30.09 "Hg

Humidity: 74%

Dew point: 70 °F

Location of MonzaLocation

Historic Weather in Monza — Graph

°F

Monza temperature yesterday

Maximum temperature yesterday: 93 °F (at 3:20 PM)
Minimum temperature yesterday: 72 °F (at 4:20 AM)
Average temperature yesterday: 83 °F

Past Weeks' High & Low Weather Summary

 TemperatureHumidityPressure
High93 °F (Jul 3, 4:50 PM)88% (Jun 20, 3:50 AM)30.30 "Hg (Jun 20, 3:50 AM)
Low59 °F (Jun 24, 4:50 AM)25% (Jun 23, 10:20 PM)29.71 "Hg (Jun 23, 4:50 AM)
Average76 °F55%30.06 "Hg
* Reported Jun 19 10:20 PM — Jul 4 10:50 PM, Monza, Weather by CustomWeather, © 2015

Note: Actual official high and low records may vary slightly from our data, if they occured in-between our weather recording intervals... More about our weather records

Advertising

Monza weather history for previous 24 hours

 ConditionsComfort  
Time TempWeatherWind HumidityBarometerVisibility
10:50 PM
Sat, Jul 4
81 °FClear.2 mph66%30.12 "Hg10 mi
10:20 PM82 °FClear.2 mph62%30.12 "Hg10 mi
9:50 PM82 °FSunny.2 mph66%30.12 "Hg10 mi
9:20 PM82 °FSunny.6 mph66%30.09 "Hg10 mi
8:50 PM84 °FSunny.5 mph62%30.09 "Hg10 mi
8:20 PM86 °FSunny.7 mph55%30.09 "Hg10 mi
7:50 PM90 °FSunny.6 mph49%30.09 "Hg10 mi
7:20 PM90 °FSunny.6 mph46%30.09 "Hg10 mi
6:50 PM91 °FSunny.5 mph44%30.09 "Hg10 mi
6:20 PM91 °FPassing clouds.6 mph44%30.09 "HgN/A
5:50 PM93 °FPassing clouds.5 mph41%30.09 "HgN/A
5:20 PM93 °FPassing clouds.7 mph44%30.12 "HgN/A
4:50 PM93 °FPassing clouds.5 mph41%30.12 "HgN/A
4:20 PM93 °FPassing clouds.5 mph41%30.12 "HgN/A
3:50 PM91 °FSunny.3 mph38%30.12 "Hg10 mi
3:20 PM93 °FPassing clouds.5 mph36%30.15 "HgN/A
2:50 PM90 °FSunny.3 mph41%30.15 "Hg10 mi
2:20 PM90 °FSunny.3 mph41%30.15 "Hg10 mi
1:50 PM88 °FSunny.3 mph43%30.18 "Hg10 mi
1:20 PM88 °FSunny.3 mph43%30.18 "Hg10 mi
12:50 PM88 °FPassing clouds.5 mph46%30.18 "HgN/A
12:20 PM86 °FSunny.5 mph46%30.21 "Hg10 mi
11:50 AM86 °FPassing clouds.6 mph49%30.21 "HgN/A
11:20 AM84 °FPassing clouds.6 mph51%30.21 "HgN/A
10:50 AM84 °FPassing clouds.6 mph48%30.21 "HgN/A
10:20 AM82 °FPassing clouds.6 mph51%30.21 "HgN/A
9:50 AM81 °FPassing clouds.6 mph54%30.21 "HgN/A
9:20 AM81 °FPassing clouds.3 mph54%30.21 "HgN/A
8:50 AM79 °FPassing clouds.3 mph58%30.21 "HgN/A
8:20 AM77 °FPassing clouds.5 mph61%30.21 "HgN/A
7:50 AM75 °FPassing clouds.3 mph65%30.21 "HgN/A
7:20 AM75 °FPassing clouds.3 mph65%30.21 "HgN/A
6:50 AM73 °FPassing clouds.3 mph69%30.21 "HgN/A
6:20 AM72 °FClear.6 mph73%30.21 "Hg10 mi
5:50 AM72 °FClear.6 mph73%30.21 "Hg10 mi
5:20 AM72 °FPassing clouds.3 mph73%30.21 "HgN/A
4:50 AM72 °FClear.1 mph78%30.21 "Hg10 mi
4:20 AM72 °FPassing clouds.3 mph78%30.21 "HgN/A
3:50 AM75 °FPassing clouds.3 mph65%30.21 "HgN/A
3:20 AM73 °FPassing clouds.2 mph74%30.21 "HgN/A
2:50 AM75 °FPassing clouds.3 mph69%30.24 "HgN/A
2:20 AM77 °FPassing clouds.3 mph61%30.21 "HgN/A
1:50 AM77 °FPassing clouds.3 mph61%30.21 "HgN/A
1:20 AM79 °FPassing clouds.10 mph58%30.18 "HgN/A
12:50 AM79 °FLight rain. Passing clouds.3 mph58%30.24 "HgN/A
12:20 AM81 °FLight rain. Passing clouds.8 mph51%30.27 "HgN/A
Weather by CustomWeather, © 2015

See weather overviewHow to use our weather pages